QPF
0.03 0.05 0.06 0.05 0.04 0.04 0.04 0.06 0.08 0.08 0.05 0.06 0.07 0.07 0.08 0.08 0.10 0.09 0.09 0.07 0.04 0.03 0.03 0.03 0.03 0.03 0.03 0.04 0.04 0.04 0.05 0.06 0.10 0.12 0.12 0.11 0.12 0.13
0.05 0.06 0.07 0.06 0.05 0.05 0.05 0.05 0.08 0.09 0.08 0.07 0.07 0.07 0.06 0.05 0.08 0.09 0.09 0.07 0.05 0.04 0.03 0.02 0.02 0.02 0.02 0.02 0.02 0.03 0.04 0.05 0.05 0.08 0.09 0.09 0.09 0.09
0.05 0.05 0.06 0.07 0.06 0.05 0.06 0.06 0.08 0.10 0.10 0.09 0.08 0.06 0.06 0.06 0.07 0.10 0.08 0.06 0.05 0.05 0.04 0.03 0.02 0.02 0.02 0.02 0.02 0.03 0.04 0.05 0.05 0.07 0.08 0.07 0.07 0.06
0.03 0.04 0.04 0.05 0.06 0.05 0.06 0.06 0.08 0.11 0.11 0.08 0.07 0.07 0.07 0.07 0.09 0.10 0.07 0.04 0.03 0.03 0.04 0.03 0.02 0.02 0.03 0.03 0.03 0.03 0.04 0.04 0.05 0.06 0.08 0.07 0.07 0.07
0.03 0.03 0.03 0.04 0.05 0.06 0.07 0.07 0.08 0.09 0.11 0.09 0.07 0.09 0.08 0.07 0.10 0.10 0.08 0.05 0.04 0.02 0.02 0.02 0.02 0.02 0.02 0.03 0.04 0.04 0.04 0.03 0.03 0.04 0.05 0.07 0.07 0.07
0.02 0.03 0.04 0.04 0.05 0.05 0.05 0.06 0.08 0.09 0.10 0.09 0.07 0.08 0.09 0.08 0.09 0.10 0.09 0.08 0.06 0.04 0.03 0.02 0.02 0.02 0.03 0.03 0.04 0.05 0.06 0.06 0.05 0.05 0.04 0.05 0.06 0.07
0.03 0.04 0.03 0.03 0.03 0.03 0.03 0.04 0.06 0.08 0.08 0.08 0.08 0.07 0.09 0.09 0.08 0.08 0.08 0.10 0.08 0.05 0.05 0.04 0.03 0.02 0.03 0.04 0.04 0.04 0.06 0.08 0.07 0.06 0.05 0.04 0.04 0.05
0.05 0.04 0.03 0.02 0.02 0.02 0.02 0.03 0.03 0.04 0.05 0.06 0.07 0.08 0.09 0.09 0.09 0.08 0.09 0.09 0.09 0.07 0.07 0.05 0.04 0.04 0.04 0.03 0.03 0.04 0.04 0.05 0.07 0.08 0.07 0.06 0.05 0.04
0.07 0.07 0.05 0.03 0.03 0.04 0.03 0.03 0.03 0.03 0.03 0.04 0.06 0.07 0.07 0.08 0.09 0.10 0.11 0.10 0.09 0.10 0.09 0.06 0.04 0.03 0.03 0.03 0.03 0.03 0.03 0.04 0.04 0.05 0.07 0.06 0.06 0.05
0.06 0.07 0.06 0.05 0.05 0.05 0.04 0.05 0.05 0.05 0.04 0.04 0.05 0.06 0.05 0.06 0.07 0.08 0.09 0.09 0.10 0.10 0.11 0.08 0.05 0.04 0.02 0.02 0.02 0.02 0.03 0.03 0.03 0.03 0.04 0.05 0.05 0.05
0.04 0.04 0.05 0.05 0.04 0.04 0.03 0.04 0.05 0.05 0.03 0.02 0.02 0.02 0.01 0.02 0.03 0.04 0.06 0.07 0.09 0.10 0.10 0.08 0.06 0.05 0.03 0.02 0.02 0.01 0.01 0.02 0.03 0.03 0.03 0.04 0.04 0.04
0.04 0.05 0.05 0.04 0.03 0.02 0.02 0.03 0.04 0.04 0.04 0.03 0.03 0.03 0.03 0.03 0.03 0.03 0.05 0.06 0.08 0.08 0.08 0.08 0.07 0.07 0.05 0.03 0.03 0.02 0.01 0.01 0.01 0.02 0.02 0.03 0.03 0.03
0.06 0.06 0.05 0.04 0.02 0.02 0.02 0.02 0.02 0.02 0.03 0.04 0.04 0.05 0.06 0.08 0.07 0.05 0.05 0.06 0.08 0.09 0.08 0.09 0.09 0.09 0.07 0.05 0.04 0.04 0.02 0.01 0.01 0.01 0.01 0.01 0.02 0.02
0.06 0.05 0.04 0.03 0.02 0.01 0.02 0.01 0.01 0.01 0.03 0.04 0.04 0.04 0.05 0.07 0.07 0.07 0.08 0.08 0.08 0.08 0.10 0.11 0.10 0.11 0.09 0.08 0.06 0.05 0.04 0.04 0.03 0.02 0.02 0.01 0.01 0.01
0.05 0.04 0.03 0.02 0.02 0.02 0.02 0.02 0.02 0.02 0.03 0.04 0.04 0.05 0.06 0.06 0.05 0.06 0.06 0.07 0.07 0.06 0.08 0.09 0.10 0.11 0.10 0.08 0.06 0.06 0.06 0.05 0.04 0.04 0.04 0.03 0.02 0.01
0.03 0.03 0.03 0.03 0.03 0.03 0.03 0.03 0.03 0.04 0.05 0.05 0.04 0.04 0.05 0.06 0.05 0.05 0.07 0.07 0.08 0.08 0.07 0.08 0.11 0.12 0.09 0.07 0.05 0.05 0.06 0.06 0.05 0.05 0.05 0.05 0.04 0.03
0.02 0.03 0.04 0.04 0.04 0.04 0.04 0.05 0.07 0.07 0.06 0.05 0.05 0.04 0.04 0.05 0.06 0.06 0.07 0.08 0.09 0.09 0.08 0.09 0.10 0.10 0.07 0.06 0.05 0.05 0.05 0.06 0.06 0.06 0.06 0.06 0.04 0.03
0.02 0.03 0.04 0.05 0.05 0.05 0.06 0.07 0.08 0.08 0.08 0.07 0.07 0.06 0.06 0.06 0.07 0.07 0.08 0.08 0.09 0.08 0.08 0.09 0.09 0.10 0.09 0.07 0.06 0.05 0.05 0.05 0.05 0.05 0.06 0.06 0.05 0.04
0.02 0.03 0.04 0.05 0.07 0.07 0.08 0.08 0.08 0.07 0.07 0.07 0.06 0.07 0.08 0.08 0.08 0.07 0.07 0.08 0.09 0.09 0.09 0.10 0.10 0.11 0.12 0.10 0.08 0.06 0.07 0.08 0.07 0.06 0.06 0.06 0.05 0.04
0.04 0.05 0.06 0.07 0.07 0.07 0.07 0.07 0.06 0.07 0.07 0.07 0.06 0.06 0.07 0.07 0.07 0.07 0.06 0.07 0.07 0.08 0.09 0.09 0.10 0.10 0.11 0.11 0.10 0.08 0.08 0.10 0.10 0.08 0.07 0.07 0.06 0.05
0.04 0.05 0.06 0.06 0.06 0.05 0.05 0.05 0.05 0.05 0.06 0.06 0.06 0.07 0.07 0.07 0.06 0.06 0.06 0.06 0.05 0.06 0.06 0.06 0.06 0.06 0.08 0.09 0.09 0.08 0.06 0.06 0.07 0.07 0.07 0.07 0.07 0.07
0.04 0.04 0.05 0.05 0.05 0.04 0.04 0.05 0.05 0.05 0.06 0.06 0.06 0.05 0.06 0.06 0.06 0.06 0.05 0.04 0.04 0.05 0.05 0.04 0.05 0.06 0.08 0.08 0.08 0.07 0.06 0.04 0.03 0.03 0.03 0.03 0.04 0.05
0.04 0.04 0.04 0.04 0.04 0.04 0.03 0.03 0.04 0.04 0.04 0.05 0.04 0.04 0.04 0.04 0.05 0.05 0.05 0.04 0.04 0.04 0.04 0.04 0.05 0.06 0.08 0.08 0.08 0.07 0.06 0.06 0.05 0.03 0.01 0.01 0.01 0.02
MSLP
1012.91 1012.92 1012.93 1012.91 1012.85 1012.72 1012.53 1012.26 1011.93 1011.55 1011.16 1010.76 1010.38 1010.05 1009.75 1009.49 1009.27 1009.07 1008.89 1008.73 1008.60 1008.49 1008.40 1008.36 1008.33 1008.33 1008.33 1008.30 1008.25 1008.14 1007.98 1007.76 1007.50 1007.24 1007.00 1006.84 1006.77 1006.83
1012.44 1012.40 1012.36 1012.31 1012.23 1012.12 1011.94 1011.72 1011.44 1011.12 1010.77 1010.40 1010.05 1009.70 1009.38 1009.07 1008.78 1008.50 1008.24 1008.01 1007.80 1007.64 1007.52 1007.46 1007.45 1007.47 1007.52 1007.57 1007.60 1007.58 1007.50 1007.37 1007.19 1006.98 1006.76 1006.59 1006.50 1006.51
1011.90 1011.80 1011.71 1011.63 1011.54 1011.42 1011.28 1011.10 1010.87 1010.61 1010.31 1010.00 1009.66 1009.32 1008.98 1008.64 1008.30 1007.96 1007.64 1007.33 1007.07 1006.84 1006.68 1006.58 1006.55 1006.57 1006.64 1006.73 1006.83 1006.90 1006.92 1006.90 1006.83 1006.72 1006.60 1006.48 1006.42 1006.42
1011.33 1011.17 1011.03 1010.91 1010.79 1010.68 1010.55 1010.40 1010.22 1010.01 1009.76 1009.49 1009.18 1008.86 1008.51 1008.16 1007.79 1007.42 1007.06 1006.71 1006.40 1006.13 1005.92 1005.77 1005.69 1005.68 1005.74 1005.84 1005.97 1006.11 1006.23 1006.33 1006.39 1006.42 1006.42 1006.41 1006.42 1006.47
1010.74 1010.52 1010.33 1010.17 1010.02 1009.90 1009.78 1009.64 1009.49 1009.31 1009.10 1008.84 1008.57 1008.26 1007.93 1007.58 1007.22 1006.85 1006.49 1006.13 1005.80 1005.50 1005.25 1005.06 1004.92 1004.86 1004.87 1004.94 1005.07 1005.24 1005.43 1005.63 1005.82 1005.99 1006.14 1006.27 1006.40 1006.53
1010.14 1009.87 1009.63 1009.42 1009.25 1009.10 1008.96 1008.82 1008.67 1008.50 1008.30 1008.06 1007.80 1007.50 1007.20 1006.88 1006.55 1006.22 1005.89 1005.56 1005.25 1004.95 1004.68 1004.44 1004.26 1004.13 1004.07 1004.08 1004.17 1004.33 1004.56 1004.82 1005.12 1005.42 1005.72 1006.01 1006.27 1006.52
1009.51 1009.20 1008.92 1008.68 1008.46 1008.28 1008.12 1007.96 1007.78 1007.60 1007.38 1007.14 1006.87 1006.60 1006.31 1006.03 1005.76 1005.49 1005.22 1004.96 1004.70 1004.44 1004.18 1003.92 1003.69 1003.49 1003.35 1003.28 1003.31 1003.43 1003.64 1003.94 1004.31 1004.72 1005.16 1005.58 1005.99 1006.36
1008.86 1008.52 1008.20 1007.93 1007.68 1007.47 1007.27 1007.07 1006.86 1006.63 1006.38 1006.12 1005.84 1005.56 1005.30 1005.06 1004.84 1004.65 1004.48 1004.30 1004.12 1003.92 1003.68 1003.44 1003.18 1002.92 1002.71 1002.56 1002.51 1002.56 1002.74 1003.04 1003.45 1003.93 1004.46 1005.00 1005.53 1006.01
1008.17 1007.81 1007.49 1007.19 1006.92 1006.68 1006.44 1006.20 1005.95 1005.67 1005.38 1005.07 1004.77 1004.48 1004.22 1004.02 1003.85 1003.73 1003.64 1003.56 1003.46 1003.34 1003.16 1002.94 1002.67 1002.40 1002.13 1001.91 1001.78 1001.78 1001.90 1002.18 1002.59 1003.10 1003.69 1004.32 1004.93 1005.50
1007.46 1007.11 1006.78 1006.48 1006.20 1005.94 1005.67 1005.39 1005.08 1004.76 1004.42 1004.06 1003.72 1003.41 1003.14 1002.95 1002.82 1002.74 1002.72 1002.72 1002.70 1002.65 1002.54 1002.37 1002.13 1001.86 1001.57 1001.31 1001.14 1001.07 1001.16 1001.39 1001.78 1002.30 1002.91 1003.57 1004.23 1004.86
1006.74 1006.42 1006.11 1005.82 1005.54 1005.26 1004.97 1004.66 1004.32 1003.94 1003.55 1003.15 1002.77 1002.42 1002.13 1001.92 1001.80 1001.75 1001.76 1001.80 1001.85 1001.86 1001.82 1001.70 1001.51 1001.26 1000.99 1000.73 1000.54 1000.46 1000.51 1000.71 1001.07 1001.57 1002.17 1002.83 1003.50 1004.14
1006.07 1005.78 1005.49 1005.21 1004.93 1004.65 1004.34 1004.01 1003.64 1003.24 1002.81 1002.37 1001.94 1001.55 1001.23 1000.98 1000.84 1000.77 1000.78 1000.84 1000.92 1000.98 1000.98 1000.92 1000.78 1000.59 1000.36 1000.14 999.98 999.90 999.94 1000.12 1000.46 1000.92 1001.49 1002.12 1002.77 1003.38
1005.48 1005.21 1004.94 1004.67 1004.40 1004.11 1003.80 1003.45 1003.06 1002.64 1002.18 1001.71 1001.24 1000.82 1000.45 1000.16 999.97 999.86 999.84 999.88 999.95 1000.02 1000.06 1000.04 999.96 999.84 999.68 999.52 999.40 999.36 999.42 999.61 999.92 1000.35 1000.88 1001.46 1002.05 1002.62
1004.99 1004.74 1004.48 1004.20 1003.92 1003.62 1003.30 1002.94 1002.54 1002.10 1001.63 1001.14 1000.66 1000.20 999.79 999.46 999.20 999.04 998.97 998.96 998.99 999.04 999.09 999.10 999.08 999.02 998.93 998.85 998.80 998.81 998.91 999.11 999.42 999.82 1000.30 1000.82 1001.35 1001.86
1004.63 1004.37 1004.10 1003.80 1003.50 1003.18 1002.83 1002.46 1002.05 1001.61 1001.14 1000.65 1000.15 999.68 999.24 998.86 998.55 998.32 998.18 998.10 998.08 998.10 998.13 998.15 998.16 998.16 998.14 998.13 998.15 998.22 998.37 998.59 998.90 999.27 999.71 1000.18 1000.66 1001.10
1004.40 1004.12 1003.81 1003.48 1003.13 1002.77 1002.39 1002.00 1001.58 1001.14 1000.68 1000.19 999.70 999.21 998.76 998.34 997.98 997.70 997.48 997.34 997.26 997.23 997.22 997.24 997.26 997.29 997.32 997.37 997.45 997.58 997.76 998.00 998.31 998.68 999.08 999.51 999.94 1000.34
1004.30 1003.98 1003.62 1003.23 1002.83 1002.42 1002.01 1001.59 1001.16 1000.72 1000.26 999.78 999.30 998.82 998.34 997.91 997.52 997.18 996.91 996.70 996.56 996.47 996.42 996.41 996.42 996.45 996.51 996.58 996.70 996.86 997.06 997.32 997.63 997.99 998.37 998.78 999.18 999.57
1004.34 1003.96 1003.54 1003.10 1002.65 1002.20 1001.74 1001.30 1000.85 1000.40 999.93 999.46 998.97 998.49 998.01 997.56 997.14 996.76 996.44 996.19 995.99 995.85 995.75 995.70 995.68 995.69 995.74 995.82 995.93 996.10 996.30 996.56 996.87 997.22 997.60 998.00 998.40 998.80
1004.49 1004.07 1003.62 1003.13 1002.64 1002.15 1001.66 1001.19 1000.72 1000.24 999.76 999.27 998.78 998.28 997.79 997.32 996.87 996.47 996.11 995.82 995.57 995.38 995.24 995.14 995.07 995.05 995.06 995.10 995.20 995.34 995.52 995.77 996.06 996.41 996.78 997.19 997.61 998.04
1004.78 1004.34 1003.87 1003.37 1002.86 1002.34 1001.84 1001.34 1000.84 1000.33 999.82 999.30 998.77 998.24 997.72 997.22 996.74 996.31 995.92 995.59 995.31 995.08 994.90 994.75 994.64 994.56 994.52 994.52 994.56 994.65 994.80 995.01 995.28 995.61 995.99 996.41 996.86 997.33
1005.20 1004.78 1004.32 1003.83 1003.33 1002.82 1002.31 1001.79 1001.26 1000.71 1000.15 999.57 998.99 998.40 997.83 997.28 996.78 996.31 995.90 995.54 995.24 994.98 994.76 994.58 994.42 994.28 994.18 994.11 994.09 994.12 994.22 994.38 994.62 994.93 995.30 995.74 996.21 996.71
1005.76 1005.38 1004.97 1004.53 1004.06 1003.58 1003.08 1002.54 1001.98 1001.39 1000.77 1000.12 999.46 998.80 998.16 997.56 997.00 996.50 996.07 995.70 995.38 995.11 994.87 994.66 994.46 994.28 994.12 993.98 993.89 993.85 993.88 993.98 994.18 994.45 994.81 995.23 995.72 996.24
1006.46 1006.14 1005.80 1005.42 1005.02 1004.57 1004.08 1003.55 1002.96 1002.32 1001.63 1000.90 1000.16 999.42 998.70 998.04 997.44 996.91 996.46 996.08 995.76 995.49 995.25 995.02 994.80 994.59 994.38 994.18 994.02 993.91 993.86 993.90 994.04 994.26 994.58 994.98 995.45 995.96
Thickness
5632 5629 5627 5625 5623 5621 5619 5615 5610 5608 5610 5613 5615 5617 5617 5616 5616 5617 5618 5619 5621 5622 5624 5625 5627 5628 5630 5631 5632 5635 5637 5638 5640 5642 5643 5644 5646 5647
5627 5625 5623 5622 5620 5617 5615 5612 5609 5605 5605 5608 5609 5610 5610 5610 5610 5611 5612 5613 5615 5616 5618 5620 5621 5622 5624 5625 5626 5628 5630 5631 5633 5635 5637 5638 5640 5641
5623 5621 5619 5618 5615 5613 5611 5608 5606 5603 5600 5603 5604 5604 5604 5603 5604 5605 5607 5609 5610 5611 5613 5614 5616 5617 5618 5620 5621 5622 5624 5625 5627 5629 5631 5633 5635 5636
5618 5617 5615 5614 5611 5608 5606 5604 5602 5601 5598 5597 5598 5598 5598 5599 5600 5600 5602 5605 5607 5608 5609 5610 5611 5612 5613 5614 5616 5617 5619 5620 5622 5624 5626 5628 5630 5631
5614 5612 5610 5609 5606 5604 5602 5599 5598 5598 5595 5593 5593 5593 5593 5595 5595 5596 5598 5600 5602 5604 5604 5605 5606 5607 5608 5609 5611 5613 5614 5616 5618 5619 5620 5622 5624 5626
5610 5608 5607 5605 5602 5600 5598 5596 5594 5592 5591 5589 5588 5589 5589 5591 5590 5590 5592 5595 5597 5599 5600 5600 5601 5602 5603 5605 5607 5608 5609 5610 5612 5613 5615 5617 5618 5620
5606 5605 5603 5602 5599 5596 5594 5591 5589 5587 5585 5584 5583 5583 5584 5584 5585 5587 5587 5589 5592 5594 5594 5595 5596 5596 5598 5599 5601 5603 5604 5605 5607 5608 5609 5611 5613 5614
5602 5601 5600 5598 5596 5593 5590 5588 5585 5583 5581 5579 5579 5578 5579 5580 5582 5583 5583 5583 5585 5589 5589 5590 5592 5592 5594 5596 5598 5599 5600 5601 5602 5603 5605 5606 5607 5609
5599 5597 5596 5595 5592 5589 5587 5585 5583 5581 5578 5576 5575 5575 5575 5576 5576 5577 5578 5578 5579 5584 5583 5585 5588 5589 5591 5595 5596 5596 5597 5597 5597 5598 5599 5601 5602 5603
5597 5595 5592 5590 5587 5584 5584 5582 5581 5579 5577 5574 5573 5573 5574 5573 5572 5572 5573 5575 5578 5580 5581 5580 5584 5586 5589 5591 5593 5593 5593 5593 5593 5594 5595 5596 5596 5597
5595 5593 5590 5586 5582 5580 5578 5577 5576 5575 5574 5572 5570 5570 5570 5569 5568 5567 5568 5570 5572 5575 5578 5577 5580 5582 5584 5586 5588 5589 5590 5590 5589 5589 5590 5590 5590 5590
5591 5589 5586 5582 5578 5574 5571 5569 5568 5568 5567 5566 5565 5565 5565 5565 5565 5563 5565 5565 5568 5570 5574 5574 5575 5577 5578 5582 5584 5584 5584 5585 5585 5584 5585 5585 5584 5583
5586 5584 5582 5577 5572 5569 5565 5563 5562 5560 5560 5560 5561 5562 5563 5562 5562 5562 5562 5562 5563 5565 5570 5570 5570 5572 5572 5575 5578 5580 5580 5580 5579 5579 5579 5580 5580 5579
5580 5579 5576 5571 5567 5564 5561 5560 5558 5555 5555 5555 5556 5557 5558 5558 5559 5559 5559 5559 5561 5562 5565 5566 5565 5566 5567 5569 5572 5575 5576 5577 5577 5577 5577 5576 5575 5575
5575 5572 5569 5565 5562 5561 5559 5556 5554 5552 5551 5551 5551 5552 5553 5554 5555 5555 5555 5556 5558 5560 5563 5563 5563 5563 5564 5565 5567 5570 5571 5573 5574 5574 5575 5574 5573 5572
5570 5566 5564 5562 5560 5557 5555 5554 5551 5549 5548 5547 5547 5548 5549 5549 5549 5550 5550 5551 5552 5555 5559 5560 5560 5560 5559 5561 5563 5564 5567 5568 5571 5571 5571 5571 5572 5572
5560 5559 5559 5558 5556 5554 5553 5551 5549 5547 5544 5543 5542 5542 5542 5543 5543 5545 5546 5546 5546 5549 5552 5554 5556 5556 5557 5557 5557 5560 5562 5564 5566 5567 5567 5567 5568 5569
5553 5554 5553 5551 5549 5547 5545 5543 5541 5539 5538 5537 5535 5535 5535 5535 5536 5537 5539 5540 5541 5543 5545 5547 5548 5549 5550 5553 5555 5556 5557 5559 5561 5562 5563 5561 5562 5565
5551 5549 5546 5544 5541 5539 5537 5535 5534 5533 5532 5531 5530 5530 5530 5530 5530 5531 5533 5534 5535 5537 5539 5541 5541 5541 5541 5545 5550 5553 5552 5553 5554 5555 5556 5556 5557 5559
5549 5545 5541 5538 5535 5532 5530 5528 5527 5525 5524 5523 5523 5523 5523 5524 5524 5525 5527 5528 5529 5531 5532 5534 5536 5536 5536 5538 5542 5545 5546 5546 5546 5547 5549 5550 5551 5552
5545 5541 5536 5532 5528 5526 5523 5521 5519 5518 5516 5515 5515 5514 5515 5515 5516 5518 5520 5520 5521 5524 5526 5528 5531 5532 5533 5534 5534 5537 5540 5540 5541 5540 5542 5541 5542 5543
5540 5535 5531 5527 5523 5520 5517 5514 5512 5510 5508 5507 5506 5506 5507 5508 5509 5510 5512 5513 5514 5516 5519 5522 5524 5525 5526 5526 5527 5529 5531 5532 5533 5534 5535 5537 5537 5537
5534 5529 5525 5520 5516 5513 5510 5507 5504 5501 5499 5498 5498 5498 5499 5501 5502 5503 5505 5506 5508 5509 5512 5514 5516 5518 5520 5521 5522 5523 5525 5526 5526 5527 5528 5530 5532 5533